Starlink 2637

operational
NORAD ID: 48356 Int'l Des: 2021-038 Owner: SPXS Country: US Constellation: starlink
LEOCIRCULARSTARLINK_TYPE

关于 Starlink 2637

正在加载描述...

实时位置

正在加载3D地球...

即将过境

高度历史

Altitude vs Time

uPlot chart will show altitude changes over time

两行轨道根数

1 48356U 21038D 25296.31938731 -.00000241 00000-0 27444-5 0 9993
2 48356 53.0542 258.2981 0001583 92.5654 267.5517 15.06414602246329
Epoch: Oct 23, 2025 • Age: 22 hours

当前状态

高度 548.2 km
速度 7.59 km/s
星下点 29.80°N, 154.65°E
发射日期 May 4, 2021
运行时间 4.4 years
类型 internet

技术详情

分类 Payload
质量 260.00 kg
干质量 248.00 kg
总质量 260.00 kg
长度 0.20 m
直径 2.80 m
跨度 9.00 m
形状 Box + pan
制造商 SPXS
平台类型 Starlink
阶段状态 In Orbit
所有者/国家 SPXS/US

大型星座

Loading constellations...